This demonstration page uses our WeatherBlox Daily Observations layout. Learn more.

Left ArrowRight Arrow

38.83388, -104.82136

Hourly Observations for January 19, 2021

Temp ( °F °C ) Dew Point ( °F °C ) Humidity (%) Winds ( mph kmh ) Pressure ( in mb ) Visibility ( mi km ) Precip ( " mm )
12:48 am 00:48 Cloudy with Haze 19 -7 16 -9 86 86 NNW 10 17 30.06 1018 5 8 0.00 0.00
12:58 am 00:58 Cloudy with Haze 20 -6.9 15 -9.5 82 82 NW 14 22 30.06 1018 1 2 0.00 0.00
1:58 am 01:58 Cloudy with Haze 19 -7.2 14 -9.8 82 82 N 13 20 30.07 1018 3 5 0.00 0.00
2:03 am 02:03 Cloudy with Haze 19 -7 14 -10 79 79 NNW 12 19 30.08 1019 2 4 0.00 0.00
2:58 am 02:58 Cloudy with Haze 19 -7.4 14 -9.8 83 83 NNW 10 17 30.10 1019 6 10 0.00 0.00
3:58 am 03:58 Cloudy 19 -7 15 -9.7 81 81 NNW 9 15 30.11 1020 10 16 0.00 0.00
4:58 am 04:58 Mostly Cloudy 19 -7 14 -10.1 79 79 NNW 7 11 30.13 1020 10 16 0.00 0.00
5:58 am 05:58 Mostly Cloudy 20 -6.9 13 -10.5 76 76 NW 6 9 30.15 1021 10 16 0.00 0.00
6:58 am 06:58 Mostly Cloudy 20 -6.8 11 -11.4 70 70 Calm 30.18 1022 10 16 0.00 0.00
7:58 am 07:58 Cloudy 20 -6.4 11 -11.9 65 65 N 7 11 30.21 1023 10 16 0.00 0.00
8:58 am 08:58 Mostly Cloudy 21 -5.9 8 -13.2 57 57 NW 6 9 30.22 1024 10 16 0.00 0.00
9:58 am 09:58 Mostly Sunny 22 -5.3 14 -10 70 70 ESE 5 7 30.24 1024 10 16 0.00 0.00
10:38 am 10:38 Mostly Cloudy 25 -4 14 -10 63 63 ESE 5 7 30.24 1024 10 16 0.00 0.00
10:48 am 10:48 Partly Cloudy 23 -5 12 -11 63 63 E 5 7 30.23 1024 10 16 0.00 0.00
10:53 am 10:53 Mostly Cloudy 23 -5 10 -12 58 58 E 3 6 30.23 1024 10 16 0.00 0.00
10:58 am 10:58 Mostly Cloudy 24 -4.7 13 -10.8 63 63 ESE 3 6 30.23 1024 10 16 0.00 0.00
11:58 am 11:58 Mostly Cloudy 24 -4.2 15 -9.3 68 68 SE 18 30 30.17 1022 10 16 0.00 0.00
12:53 pm 12:53 Partly Cloudy 28 -2 18 -8 64 64 S 12 19 30.11 1020 10 16 0.00 0.00
12:58 pm 12:58 Partly Cloudy 29 -1.8 18 -7.9 63 63 S 10 17 30.11 1020 10 16 0.00 0.00
1:13 pm 13:13 Mostly Cloudy 28 -2 18 -8 64 64 Calm 30.12 1020 10 16 0.00 0.00
1:48 pm 13:48 Partly Cloudy 28 -2 18 -8 64 64 N 7 11 30.10 1019 10 16 0.00 0.00
1:58 pm 13:58 Partly Cloudy 28 -2 18 -7.9 64 64 NNW 8 13 30.10 1019 10 16 0.00 0.00
2:58 pm 14:58 Mostly Sunny 27 -2.6 17 -8.5 64 64 WNW 5 7 30.11 1020 10 16 0.00 0.00
3:58 pm 15:58 Sunny 26 -3.5 17 -8.5 69 69 S 7 11 30.11 1020 10 16 0.00 0.00
4:58 pm 16:58 Sunny 23 -5 16 -8.8 75 75 SSE 5 7 30.14 1021 10 16 0.00 0.00
5:58 pm 17:58 Clear 21 -6.1 16 -9 80 80 N 3 6 30.14 1021 10 16 0.00 0.00
6:58 pm 18:58 Clear 21 -6.2 16 -9.1 80 80 NNW 5 7 30.13 1020 10 16 0.00 0.00
7:58 pm 19:58 Clear 20 -6.8 15 -9.6 81 81 Calm 30.13 1020 10 16 0.00 0.00
8:58 pm 20:58 Clear 21 -6.2 16 -8.8 82 82 Calm 30.11 1020 10 16 0.00 0.00
9:58 pm 21:58 Clear 21 -6.2 15 -9.2 80 80 Calm 30.09 1019 10 16 0.00 0.00
10:58 pm 22:58 Clear 25 -4.1 15 -9.3 67 67 Calm 30.02 1017 10 16 0.00 0.00
11:58 pm 23:58 Clear 26 -3.1 14 -9.8 60 60 Calm 29.96 1015 10 16 0.00 0.00

Powered by AerisWeather